Weather History for Big Bear City, CA

Change the Weather History Date:

Sunday, March 10, 2013

  Actual Average (KBUO) Record (KBUO)
Temperature  
Mean Temperature 35 °F -  
Max Temperature 46 °F 62 °F 86 °F (1997)
Min Temperature 24 °F 41 °F 37 °F (1999)
Degree Days  
Heating Degree Days 30    
Moisture  
Dew Point 10 °F    
Average Humidity 38    
Maximum Humidity 64    
Minimum Humidity 16    
Precipitation  
Precipitation 0.00 in - - ()
Sea Level Pressure  
Sea Level Pressure 30.30 in    
Wind  
Wind Speed 6 mph (ENE)    
Max Wind Speed 15 mph    
Max Gust Speed 23 mph    
Visibility 10 miles    
Events      
Averages and records for this station are not official NWS values.
T = Trace of Precipitation, MM = Missing Value Source: NWS Daily Summary

Daily Weather History Graph

Daily Weather History Graph

Search for Another Location

Airport:

Trip Planner

Search our weather history database for the weather conditions in past years. The results will help you decide how hot, cold, wet, or windy it might be!

Date:

Astronomy

Mar. 10, 2013 Rise Set
Actual Time 7:04 AM PDT 6:51 PM PDT
Civil Twilight 6:39 AM PDT 7:16 PM PDT
Nautical Twilight 6:10 AM PDT 7:45 PM PDT
Astronomical Twilight 5:41 AM PDT 8:14 PM PDT
Moon 6:05 AM PDT (3/10) 6:04 PM PDT (3/10)
Length of Visible Light 12h 37m
Length of Day
11h 47m
Waning Crescent, 1% of the Moon is Illuminated
Mar 10
Waning Crescent
Mar 11
New
Mar 19
First Quarter
Mar 27
Full
Apr 2
Last Quarter

Hourly Weather History & Observations

Time (PDT) Temp. Windchill Dew Point Humidity Pressure Visibility Wind Dir Wind Speed Gust Speed Precip Events Conditions
12:15 AM 33.8 °F 25.8 °F 15.8 °F 48% 30.25 in 10.0 mi NE 10.4 mph 23.0 mph N/A   Clear
12:35 AM 33.8 °F 24.3 °F 15.8 °F 48% 30.26 in 10.0 mi NNE 13.8 mph 19.6 mph N/A   Clear
12:55 AM 33.8 °F 29.6 °F 15.8 °F 48% 30.26 in 10.0 mi NNE 4.6 mph - N/A   Clear
1:15 AM 32.0 °F 27.5 °F 17.6 °F 55% 30.26 in 10.0 mi NNE 4.6 mph - N/A   Clear
1:35 AM 32.0 °F - 17.6 °F 55% 30.26 in 10.0 mi Calm Calm - N/A   Clear
1:55 AM 30.2 °F - 19.4 °F 64% 30.26 in 10.0 mi Calm Calm - N/A   Clear
3:15 AM 28.4 °F - 17.6 °F 64% 30.27 in 10.0 mi Calm Calm - N/A   Clear
3:35 AM 32.0 °F - 14.0 °F 48% 30.26 in 10.0 mi Calm Calm - N/A   Clear
3:55 AM 30.2 °F - 15.8 °F 55% 30.26 in 10.0 mi Calm Calm - N/A   Clear
4:15 AM 30.2 °F - 15.8 °F 55% 30.27 in 10.0 mi Calm Calm - N/A   Clear
5:35 AM 32.0 °F 24.8 °F 10.4 °F 41% 30.26 in 10.0 mi ENE 8.1 mph - N/A   Clear
5:55 AM 32.0 °F 24.2 °F 10.4 °F 41% 30.26 in 10.0 mi NE 9.2 mph 19.6 mph N/A   Clear
6:15 AM 32.0 °F 23.0 °F 8.6 °F 38% 30.26 in 10.0 mi ENE 11.5 mph 20.7 mph N/A   Clear
6:35 AM 32.0 °F 22.5 °F 8.6 °F 38% 30.27 in 10.0 mi ENE 12.7 mph 18.4 mph N/A   Clear
6:55 AM 32.0 °F 27.5 °F 8.6 °F 38% 30.27 in 10.0 mi NE 4.6 mph 17.3 mph N/A   Clear
7:15 AM 30.2 °F 21.3 °F 10.4 °F 44% 30.27 in 10.0 mi East 10.4 mph - N/A   Clear
7:35 AM 30.2 °F 23.4 °F 10.4 °F 44% 30.28 in 10.0 mi NE 6.9 mph - N/A   Clear
7:55 AM 32.0 °F 23.6 °F 8.6 °F 38% 30.30 in 10.0 mi ENE 10.4 mph - N/A   Clear
8:15 AM 32.0 °F 24.8 °F 8.6 °F 38% 30.30 in 10.0 mi East 8.1 mph 21.9 mph N/A   Clear
8:35 AM 33.8 °F 25.3 °F 8.6 °F 35% 30.31 in 10.0 mi East 11.5 mph 18.4 mph N/A   Clear
8:55 AM 33.8 °F 25.3 °F 6.8 °F 32% 30.32 in 10.0 mi ENE 11.5 mph 20.7 mph N/A   Clear
9:15 AM 35.6 °F 29.2 °F 6.8 °F 30% 30.33 in 10.0 mi East 8.1 mph - N/A   Clear
9:35 AM 35.6 °F 29.2 °F 6.8 °F 30% 30.32 in 10.0 mi ENE 8.1 mph - N/A   Clear
9:55 AM 37.4 °F 33.8 °F 3.2 °F 24% 30.33 in 10.0 mi ENE 4.6 mph - N/A   Clear
10:15 AM 37.4 °F 32.8 °F 3.2 °F 24% 30.33 in 10.0 mi East 5.8 mph - N/A   Clear
10:35 AM 37.4 °F 31.4 °F 5.0 °F 26% 30.33 in 10.0 mi ENE 8.1 mph 16.1 mph N/A   Clear
10:55 AM 39.2 °F 35.9 °F 6.8 °F 26% 30.34 in 10.0 mi North 4.6 mph - N/A   Clear
11:15 AM 41.0 °F 34.7 °F 8.6 °F 26% 30.33 in 10.0 mi East 10.4 mph - N/A   Clear
11:35 AM 41.0 °F 38.0 °F 10.4 °F 29% 30.33 in 10.0 mi East 4.6 mph - N/A   Clear
11:55 AM 42.8 °F 37.0 °F 8.6 °F 25% 30.32 in 10.0 mi East 10.4 mph - N/A   Clear
12:15 PM 44.6 °F 37.8 °F 5.0 °F 20% 30.31 in 10.0 mi ENE 15.0 mph 19.6 mph N/A   Clear
12:35 PM 44.6 °F 38.8 °F 5.0 °F 20% 30.32 in 10.0 mi ESE 11.5 mph - N/A   Clear
12:55 PM 44.6 °F 38.4 °F 5.0 °F 20% 30.31 in 10.0 mi ENE 12.7 mph 16.1 mph N/A   Clear
1:15 PM 44.6 °F 39.2 °F 5.0 °F 20% 30.30 in 10.0 mi East 10.4 mph 17.3 mph N/A   Clear
1:35 PM 46.4 °F 40.7 °F 3.2 °F 17% 30.29 in 10.0 mi East 12.7 mph 20.7 mph N/A   Clear
1:55 PM 46.4 °F 41.5 °F 3.2 °F 17% 30.29 in 10.0 mi East 10.4 mph 18.4 mph N/A   Clear
2:15 PM 46.4 °F 41.5 °F 6.8 °F 20% 30.29 in 10.0 mi East 10.4 mph - N/A   Clear
2:35 PM 44.6 °F 40.7 °F 8.6 °F 23% 30.28 in 10.0 mi ESE 6.9 mph - N/A   Clear
2:55 PM 46.4 °F 41.5 °F 8.6 °F 22% 30.28 in 10.0 mi East 10.4 mph - N/A   Clear
3:15 PM 46.4 °F 41.5 °F 1.4 °F 16% 30.28 in 10.0 mi East 10.4 mph - N/A   Clear
3:35 PM 46.4 °F 41.5 °F 1.4 °F 16% 30.28 in 10.0 mi East 10.4 mph - N/A   Clear
3:55 PM 46.4 °F 42.4 °F 3.2 °F 17% 30.28 in 10.0 mi East 8.1 mph - N/A   Clear
4:15 PM 46.4 °F 42.9 °F 5.0 °F 18% 30.28 in 10.0 mi East 6.9 mph - N/A   Clear
4:35 PM 46.4 °F 41.9 °F 5.0 °F 18% 30.27 in 10.0 mi East 9.2 mph - N/A   Clear
4:55 PM 46.4 °F 43.5 °F 3.2 °F 17% 30.27 in 10.0 mi East 5.8 mph - N/A   Clear
5:15 PM 46.4 °F 42.4 °F 3.2 °F 17% 30.27 in 10.0 mi East 8.1 mph - N/A   Clear
5:35 PM 46.4 °F 43.5 °F 3.2 °F 17% 30.27 in 10.0 mi ESE 5.8 mph - N/A   Clear
5:55 PM 46.4 °F 41.9 °F 3.2 °F 17% 30.27 in 10.0 mi ENE 9.2 mph - N/A   Clear
6:15 PM 44.6 °F 39.7 °F 3.2 °F 18% 30.28 in 10.0 mi ENE 9.2 mph - N/A   Clear
6:35 PM 42.8 °F 40.1 °F 3.2 °F 19% 30.29 in 10.0 mi East 4.6 mph - N/A   Clear
6:55 PM 41.0 °F 39.0 °F 8.6 °F 26% 30.29 in 10.0 mi ENE 3.5 mph - N/A   Clear
7:15 PM 35.6 °F - 14.0 °F 41% 30.30 in 10.0 mi Calm Calm - N/A   Clear
7:35 PM 33.8 °F - 14.0 °F 44% 30.30 in 10.0 mi Calm Calm - N/A   Clear
7:55 PM 32.0 °F - 15.8 °F 51% 30.31 in 10.0 mi Calm Calm - N/A   Clear
8:15 PM 32.0 °F - 15.8 °F 51% 30.31 in 10.0 mi Calm Calm - N/A   Clear
8:35 PM 30.2 °F - 15.8 °F 55% 30.32 in 10.0 mi Calm Calm - N/A   Clear
8:55 PM 30.2 °F - 14.0 °F 51% 30.33 in 10.0 mi Calm Calm - N/A   Clear
9:15 PM 28.4 °F - 15.8 °F 59% 30.33 in 10.0 mi Calm Calm - N/A   Clear
9:35 PM 28.4 °F - 15.8 °F 59% 30.34 in 10.0 mi Calm Calm - N/A   Clear
9:55 PM 28.4 °F - 14.0 °F 55% 30.34 in 10.0 mi Calm Calm - N/A   Clear
10:15 PM 26.6 °F - 14.0 °F 59% 30.34 in 10.0 mi Calm Calm - N/A   Clear
10:35 PM 26.6 °F - 14.0 °F 59% 30.35 in 10.0 mi Calm Calm - N/A   Clear
10:55 PM 26.6 °F - 14.0 °F 59% 30.34 in 10.0 mi Calm Calm - N/A   Clear
11:15 PM 26.6 °F - 14.0 °F 59% 30.34 in 10.0 mi Calm Calm - N/A   Clear
11:35 PM 26.6 °F - 14.0 °F 59% 30.34 in 10.0 mi Calm Calm - N/A   Clear
11:55 PM 24.8 °F - 12.2 °F 59% 30.34 in 10.0 mi Calm Calm - N/A   Clear
12:15 AM 24.8 °F - 12.2 °F 59% 30.34 in 10.0 mi Calm Calm - N/A   Clear
12:35 AM 24.8 °F - 10.4 °F 54% 30.33 in 10.0 mi Calm Calm - N/A   Clear
12:55 AM 24.8 °F - 12.2 °F 59% 30.33 in 10.0 mi Calm Calm - N/A   Clear